This demonstration page uses our WeatherBlox Daily Observations layout. Learn more.

Left ArrowRight Arrow

53.62937, 11.41316

Hourly Observations for December 24, 2016

Temp ( °F °C ) Dew Point ( °F °C ) Humidity (%) Winds ( mph kmh ) Pressure ( in mb ) Visibility ( mi km ) Precip ( " mm )
12:20 am 00:20 Mostly Cloudy 39 4 36 2 87 87 S 14 22 30.12 1020 30 48 N/A
1:05 am 01:05 Cloudy 39 4 34 1 81 81 SSW 15 24 30.09 1019 30 48 N/A
1:20 am 01:20 Mostly Cloudy 39 4 34 1 81 81 SSW 14 22 30.09 1019 30 48 N/A
2:20 am 02:20 Mostly Cloudy with Rain 39 4 36 2 87 87 SSW 15 24 30.06 1018 5 8 N/A
2:50 am 02:50 Mostly Cloudy with Rain 37 3 36 2 93 93 SW 14 22 30.06 1018 30 48 N/A
3:20 am 03:20 Mostly Cloudy with Light Rain 39 4 36 2 87 87 SW 15 24 30.03 1017 30 48 N/A
4:20 am 04:20 Mostly Cloudy 39 4 36 2 87 87 SW 15 24 30.03 1017 30 48 N/A
5:20 am 05:20 Mostly Cloudy with Light Rain 41 5 37 3 87 87 WSW 13 20 30.03 1017 30 48 N/A
6:20 am 06:20 Mostly Cloudy 41 5 37 3 87 87 SW 13 20 30.03 1017 30 48 N/A
7:20 am 07:20 Mostly Cloudy 41 5 39 4 93 93 SW 12 19 30.00 1016 30 48 N/A
8:20 am 08:20 Mostly Cloudy 43 6 39 4 87 87 SW 10 17 30.00 1016 30 48 N/A
9:20 am 09:20 Mostly Cloudy 43 6 39 4 87 87 WSW 12 19 30.03 1017 30 48 N/A
9:48 am 09:48 Mostly Cloudy with Drizzle 43 6 39 4 87 87 WSW 9 15 30.03 1017 3 5 N/A
10:20 am 10:20 Mostly Cloudy with Showers Nearby 43 6 39 4 87 87 WSW 15 24 30.03 1017 30 48 N/A
11:20 am 11:20 Mostly Cloudy 45 7 39 4 81 81 WSW 13 20 30.00 1016 30 48 N/A
12:20 pm 12:20 Mostly Cloudy 45 7 39 4 81 81 WSW 12 19 30.00 1016 30 48 N/A
1:20 pm 13:20 Mostly Cloudy 45 7 37 3 76 76 WSW 14 22 29.97 1015 30 48 N/A
2:20 pm 14:20 Mostly Cloudy 45 7 36 2 71 71 WSW 15 24 29.97 1015 30 48 N/A
2:59 pm 14:59 Mostly Cloudy with Rain 45 7 37 3 76 76 WSW 15 24 29.97 1015 5 8 N/A
3:20 pm 15:20 Mostly Cloudy with Light Rain 43 6 39 4 87 87 WSW 13 20 29.94 1014 30 48 N/A
3:30 pm 15:30 Mostly Cloudy with Light Rain 43 6 39 4 87 87 WSW 13 20 29.97 1015 6 9 N/A
4:20 pm 16:20 Mostly Cloudy with Drizzle 43 6 39 4 87 87 WSW 12 19 29.97 1015 30 48 N/A
5:20 pm 17:20 Mostly Cloudy 43 6 37 3 81 81 WSW 16 26 29.94 1014 30 48 N/A
6:20 pm 18:20 Mostly Cloudy 43 6 37 3 81 81 WSW 13 20 29.94 1014 30 48 N/A
7:12 pm 19:12 Windy with Rain Showers Likely 43 6 37 3 81 81 W 20 31 29.94 1014 30 48 N/A
7:20 pm 19:20 Windy with Rain Showers Likely 43 6 37 3 81 81 W 24 39 29.94 1014 30 48 N/A
8:20 pm 20:20 Mostly Cloudy with Light Rain 41 5 39 4 93 93 WSW 10 17 29.94 1014 5 8 N/A
9:20 pm 21:20 Mostly Cloudy with Drizzle 41 5 37 3 87 87 WSW 12 19 29.91 1013 30 48 N/A
10:20 pm 22:20 Mostly Cloudy 43 6 39 4 87 87 WSW 14 22 29.88 1012 2 4 N/A
11:20 pm 23:20 Cloudy 39 4 36 2 87 87 W 23 37 29.88 1012 0 0 N/A

Powered by AerisWeather